Location: Earls Croome
(52.0667°N, 2.2000°W)
Time: 10:17:18
(UTC+00:00)

SL-27 R/B - Pass Details

Date: 17 November 2019
Orbit: 420 x 472 km, 74.7° (Epoch: 05 December)

Event Time Altitude Azimuth Distance (km) Brightness Sun altitude
Exits shadow 04:46:38 24° 41° (NE) 932 4.4 -25.0°
Drops below altitude 10° 04:48:08 10° 32° (NNE) 1,522 5.4 -24.8°
Sets 04:50:14 0° 28° (NNE) 2,398 6.5 -24.5°
